GEESAT-3 10

Last updated on Sun Oct 06 2024 00:02:04 GMT+0000 (Coordinated Universal Time)

1 61020U 24159K 24279.57765592 .00018280 00000+0 17837-2 0 9996 2 61020 49.9977 99.3162 0030632 317.2461 42.6098 14.92072566 4177
UTC large
Height (km)
Speed (km/s)
/
Latitude / Longitude
Inclination (degrees)
Orbital Period (minutes)
Azimuth
Elevation
Range (km)
Doppler Factor

Next 0 passes for location: London (51.5072 / 0.1276)

Sorry there are no passes over London.